When you browse on this site, cookies collect data to enhance your experience and personalize the content and advertising you see.
Visit our Privacy Policy to learn more. By continuing to use the site, you agree to this use of cookies and data.
  • In Hungary
  • List of Countries
  • For 7 days
  • Water Temperature
  • Satellite Maps
  • Weather Map
  • News
  • Weather Widgets
  • user-avatar
    Login

    Hourly Weather Gomzyaki

    Today, 17 November, Saturday

    Time Temperature Precipitation Wind Pressure Humidity
    00:00 -2°C° 0 mm 1 mps 768 mmHg 24%
    01:00 -2°C° 0 mm 1 mps 768 mmHg 24%
    02:00 -2°C° 0 mm 1 mps 768 mmHg 24%
    03:00 -2°C° 0 mm 1 mps 768 mmHg 24%
    04:00 -2°C° 0 mm 1 mps 768 mmHg 23%
    05:00 -2°C° 0 mm 1 mps 767 mmHg 23%
    06:00 -2°C° 0 mm 1 mps 767 mmHg 23%
    07:00 -2°C° 0 mm 1 mps 767 mmHg 23%
    08:00 -2°C° 0 mm 1 mps 767 mmHg 22%
    09:00 -2°C° 0 mm 1 mps 766 mmHg 22%
    10:00 -1°C° 0 mm 1 mps 766 mmHg 20%
    11:00 0°C° 0 mm 1 mps 766 mmHg 19%
    12:00 +2°C° 0 mm 1 mps 765 mmHg 18%
    13:00 +2°C° 0 mm 1 mps 765 mmHg 19%
    14:00 -1°C° 0 mm 2 mps 764 mmHg 20%
    15:00 -1°C° 0 mm 2 mps 763 mmHg 22%
    16:00 -1°C° 0 mm 2 mps 763 mmHg 23%
    17:00 -2°C° 0 mm 2 mps 762 mmHg 23%
    18:00 -2°C° 0 mm 3 mps 761 mmHg 24%
    19:00 -2°C° 0 mm 3 mps 761 mmHg 25%
    20:00 -2°C° 0 mm 3 mps 760 mmHg 25%
    21:00 -4°C° 0 mm 3 mps 759 mmHg 25%
    22:00 -4°C° 0 mm 3 mps 759 mmHg 25%
    23:00 -4°C° 0 mm 4 mps 758 mmHg 25%

    Tomorrow, 18 November, Sunday

    Time Temperature Precipitation Wind Pressure Humidity
    00:00 -4°C° 0 mm 4 mps 757 mmHg 26%
    01:00 -3°C° 0 mm 4 mps 757 mmHg 26%
    02:00 -3°C° 0 mm 4 mps 756 mmHg 26%
    03:00 -3°C° 0 mm 4 mps 756 mmHg 26%
    04:00 -3°C° 0 mm 4 mps 755 mmHg 27%
    05:00 -4°C° 0 mm 4 mps 754 mmHg 27%
    06:00 -4°C° 0 mm 4 mps 754 mmHg 28%
    07:00 -4°C° 0 mm 4 mps 753 mmHg 31%
    08:00 -3°C° 0 mm 4 mps 753 mmHg 33%
    09:00 -3°C° 0 mm 4 mps 753 mmHg 36%
    10:00 -3°C° 0 mm 4 mps 753 mmHg 37%
    11:00 -1°C° 0 mm 3 mps 753 mmHg 38%
    12:00 -1°C° 0 mm 3 mps 753 mmHg 39%
    13:00 -1°C° 0 mm 3 mps 752 mmHg 40%
    14:00 -1°C° 0 mm 3 mps 752 mmHg 41%
    15:00 -1°C° 0 mm 2 mps 752 mmHg 43%
    16:00 -1°C° 0 mm 2 mps 752 mmHg 44%
    17:00 -2°C° 0 mm 2 mps 752 mmHg 45%
    18:00 -2°C° 0 mm 2 mps 752 mmHg 46%
    19:00 -2°C° 0 mm 2 mps 752 mmHg 49%
    20:00 -2°C° 0 mm 2 mps 753 mmHg 51%
    21:00 0°C° 0 mm 1 mps 753 mmHg 54%
    22:00 -1°C° 0.1 mm 1 mps 753 mmHg 55%
    23:00 -1°C° 0.1 mm 1 mps 753 mmHg 57%

    Day after tomorrow, 19 November, Monday

    Time Temperature Precipitation Wind Pressure Humidity
    00:00 -1°C° 0.1 mm 1 mps 753 mmHg 59%
    01:00 -1°C° 0.1 mm 1 mps 754 mmHg 58%
    02:00 -1°C° 0.1 mm 1 mps 754 mmHg 57%
    03:00 -1°C° 0.1 mm 1 mps 754 mmHg 57%
    04:00 -1°C° 0 mm 1 mps 754 mmHg 56%
    05:00 -1°C° 0 mm 1 mps 755 mmHg 55%
    06:00 -1°C° 0 mm 1 mps 755 mmHg 55%
    07:00 -1°C° 0 mm 1 mps 755 mmHg 53%
    08:00 -1°C° 0 mm 1 mps 756 mmHg 52%
    09:00 -1°C° 0 mm 1 mps 756 mmHg 50%
    10:00 0°C° 0 mm 1 mps 757 mmHg 47%
    11:00 0°C° 0 mm 1 mps 757 mmHg 44%
    12:00 +1°C° 0 mm 1 mps 757 mmHg 41%
    13:00 +1°C° 0 mm 1 mps 757 mmHg 42%
    14:00 +1°C° 0 mm 1 mps 758 mmHg 43%
    15:00 +1°C° 0 mm 1 mps 758 mmHg 44%
    16:00 0°C° 0 mm 1 mps 758 mmHg 46%
    17:00 0°C° 0 mm 1 mps 758 mmHg 48%
    18:00 -3°C° 0 mm 2 mps 758 mmHg 50%
    19:00 -3°C° 0 mm 2 mps 759 mmHg 51%
    20:00 -3°C° 0 mm 2 mps 759 mmHg 52%
    21:00 -3°C° 0 mm 2 mps 759 mmHg 52%
    22:00 -3°C° 0 mm 2 mps 759 mmHg 53%
    23:00 -3°C° 0 mm 2 mps 760 mmHg 53%

    20 November, Tuesday

    Time Temperature Precipitation Wind Pressure Humidity
    00:00 -3°C° 0 mm 2 mps 760 mmHg 54%
    01:00 -3°C° 0 mm 2 mps 760 mmHg 54%
    02:00 -3°C° 0 mm 2 mps 760 mmHg 54%
    03:00 -3°C° 0 mm 2 mps 760 mmHg 55%
    04:00 -3°C° 0 mm 2 mps 760 mmHg 54%
    05:00 -3°C° 0 mm 2 mps 760 mmHg 54%
    06:00 -3°C° 0 mm 2 mps 760 mmHg 54%
    07:00 -3°C° 0 mm 2 mps 760 mmHg 52%
    08:00 -3°C° 0 mm 2 mps 760 mmHg 51%
    09:00 -3°C° 0 mm 2 mps 760 mmHg 49%
    10:00 -2°C° 0 mm 2 mps 760 mmHg 46%
    11:00 -2°C° 0 mm 2 mps 759 mmHg 44%
    12:00 -1°C° 0 mm 2 mps 759 mmHg 41%
    13:00 -1°C° 0 mm 2 mps 759 mmHg 46%
    14:00 -1°C° 0 mm 2 mps 758 mmHg 51%
    15:00 -1°C° 0 mm 2 mps 758 mmHg 55%
    16:00 -2°C° 0.1 mm 2 mps 758 mmHg 63%
    17:00 -2°C° 0.1 mm 2 mps 757 mmHg 70%
    18:00 -2°C° 0.1 mm 2 mps 757 mmHg 78%
    19:00 -2°C° 0 mm 2 mps 757 mmHg 76%
    20:00 -2°C° 0 mm 2 mps 757 mmHg 75%
    21:00 -2°C° 0 mm 2 mps 757 mmHg 74%
    22:00 -2°C° 0 mm 2 mps 756 mmHg 72%
    23:00 -2°C° 0 mm 2 mps 756 mmHg 71%

    21 November, Wednesday

    Time Temperature Precipitation Wind Pressure Humidity
    00:00 -1°C° 0 mm 1 mps 756 mmHg 69%
    01:00 -1°C° 0 mm 1 mps 755 mmHg 70%
    02:00 -1°C° 0 mm 1 mps 755 mmHg 71%
    03:00 -1°C° 0 mm 1 mps 755 mmHg 72%
    04:00 -1°C° 0 mm 1 mps 755 mmHg 75%
    05:00 -1°C° 0 mm 1 mps 754 mmHg 79%
    06:00 -2°C° 0 mm 1 mps 754 mmHg 82%
    07:00 -1°C° 0 mm 1 mps 754 mmHg 82%
    08:00 -1°C° 0 mm 1 mps 754 mmHg 83%
    09:00 -1°C° 0 mm 1 mps 754 mmHg 84%
    10:00 -1°C° 0 mm 1 mps 754 mmHg 82%
    11:00 0°C° 0 mm 1 mps 754 mmHg 80%
    12:00 0°C° 0 mm 0 mps 754 mmHg 78%
    13:00 +1°C° 0 mm 1 mps 754 mmHg 79%
    14:00 +1°C° 0 mm 1 mps 754 mmHg 80%
    15:00 +1°C° 0 mm 1 mps 753 mmHg 81%
    16:00 0°C° 0 mm 1 mps 753 mmHg 83%
    17:00 -2°C° 0 mm 2 mps 753 mmHg 84%
    18:00 -3°C° 0 mm 2 mps 753 mmHg 86%
    19:00 -3°C° 0 mm 2 mps 753 mmHg 87%
    20:00 -3°C° 0 mm 2 mps 753 mmHg 87%
    21:00 -3°C° 0 mm 2 mps 753 mmHg 87%
    22:00 -3°C° 0 mm 2 mps 753 mmHg 87%
    23:00 -4°C° 0 mm 2 mps 754 mmHg 87%

    22 November, Thursday

    Time Temperature Precipitation Wind Pressure Humidity
    00:00 -4°C° 0 mm 2 mps 754 mmHg 86%
    01:00 -4°C° 0 mm 2 mps 753 mmHg 87%
    02:00 -4°C° 0 mm 2 mps 753 mmHg 87%
    03:00 -5°C° 0 mm 2 mps 753 mmHg 88%
    04:00 -5°C° 0 mm 2 mps 753 mmHg 89%
    05:00 -6°C° 0 mm 3 mps 753 mmHg 90%
    06:00 -6°C° 0 mm 3 mps 753 mmHg 92%
    07:00 -6°C° 0 mm 3 mps 753 mmHg 91%
    08:00 -6°C° 0 mm 3 mps 754 mmHg 91%
    09:00 -6°C° 0 mm 3 mps 754 mmHg 91%
    10:00 -5°C° 0 mm 3 mps 754 mmHg 85%
    11:00 -5°C° 0 mm 3 mps 754 mmHg 80%
    12:00 -4°C° 0 mm 3 mps 754 mmHg 75%
    13:00 -4°C° 0 mm 3 mps 754 mmHg 74%
    14:00 -4°C° 0 mm 3 mps 754 mmHg 73%
    15:00 -4°C° 0 mm 3 mps 754 mmHg 72%
    16:00 -4°C° 0 mm 3 mps 754 mmHg 75%
    17:00 -5°C° 0 mm 3 mps 754 mmHg 78%
    18:00 -6°C° 0 mm 3 mps 754 mmHg 81%
    19:00 -5°C° 0 mm 2 mps 754 mmHg 81%
    20:00 -5°C° 0 mm 2 mps 755 mmHg 81%
    21:00 -5°C° 0 mm 2 mps 755 mmHg 82%
    22:00 -5°C° 0 mm 2 mps 755 mmHg 83%
    23:00 -6°C° 0 mm 2 mps 755 mmHg 84%
    Show more